Location: Newark
(3.8581°S, 32.4250°W)
Time: 06:04:06
(UTC+00:00)

LightSail 2 - Visible Passes

Search period start: 22 September 2019 00:00
Search period end: 02 October 2019 00:00
Orbit: 701 x 730 km, 24.0° (Epoch: 21 September)

Date Brightness Start Highest point End Pass type
(mag) Time Alt. Az. Time Alt. Az. Time Alt. Az.
23 Sep 7.7 22:06:59 10° SSW 22:07:39 12° S 22:07:39 12° S visible
24 Sep 7.4 21:10:29 10° S 21:12:19 12° SSE 21:14:00 10° SSE visible
25 Sep 7.1 21:57:03 10° SSW 21:59:23 19° S 21:59:23 19° S visible
26 Sep 7.0 21:00:13 10° SSW 21:03:39 17° SSE 21:05:46 14° SE visible
26 Sep 8.0 22:44:30 10° SW 22:44:47 11° SW 22:44:47 11° SW visible
27 Sep 6.3 21:47:24 10° SW 21:51:12 33° S 21:51:12 33° S visible
28 Sep 6.5 20:50:22 10° SW 20:54:49 27° SSE 20:57:37 17° ESE visible
28 Sep 7.6 22:35:17 10° WSW 22:36:39 18° WSW 22:36:39 18° WSW visible
29 Sep 5.2 21:37:58 10° WSW 21:43:06 65° SSE 21:43:06 65° SSE visible
30 Sep 5.7 20:40:46 10° SW 20:45:48 45° SSE 20:49:35 17° E visible
30 Sep 7.2 22:26:22 10° W 22:28:36 24° W 22:28:36 24° W visible
01 Oct 5.3 21:28:48 10° WSW 21:34:02 69° NNW 21:35:05 54° NNE visible
